Location: Clanezzo
(45.7500°N, 9.6000°E)
Time: 01:31:58
(UTC+00:00)

EO-79 - Visible Passes

Search period start: 30 June 2022 00:00
Search period end: 10 July 2022 00:00
Orbit: 587 x 605 km, 98.0° (Epoch: 29 June)

Date Brightness Start Highest point End Pass type
(mag) Time Alt. Az. Time Alt. Az. Time Alt. Az.
30 Jun ? 00:49:28 10° NNE 00:53:37 51° E 00:55:23 30° SSE visible
30 Jun ? 02:26:05 10° NNW 02:28:51 17° WNW 02:31:38 10° WSW visible
01 Jul ? 00:59:20 10° NNE 01:03:33 66° ESE 01:05:23 32° S visible
01 Jul ? 02:36:26 10° NNW 02:38:39 14° WNW 02:40:53 10° W visible
02 Jul ? 01:09:13 10° NNE 01:13:28 84° E 01:15:24 32° S visible
02 Jul ? 02:47:03 10° NW 02:48:27 11° WNW 02:49:50 10° WNW visible
02 Jul ? 23:46:13 10° ENE 23:47:14 11° E 23:48:14 10° ESE visible
03 Jul ? 01:19:08 10° N 01:23:23 77° WNW 01:25:23 30° SSW visible
03 Jul ? 23:55:04 10° ENE 23:57:16 14° E 23:58:43 12° ESE visible
04 Jul ? 01:29:05 10° N 01:33:15 60° WNW 01:35:23 27° SW visible
05 Jul ? 00:04:26 10° NE 00:07:16 17° E 00:08:43 15° ESE visible
05 Jul ? 01:39:04 10° N 01:43:08 47° WNW 01:45:23 24° SW visible
06 Jul ? 00:13:58 10° NE 00:17:15 22° E 00:18:42 18° ESE visible
06 Jul ? 01:49:04 10° N 01:52:59 37° WNW 01:55:22 20° SW visible
07 Jul ? 00:23:36 10° NE 00:27:14 27° E 00:28:41 22° SE visible
07 Jul ? 01:59:08 10° N 02:02:50 30° WNW 02:05:21 17° WSW visible
08 Jul ? 00:33:18 10° NNE 00:37:12 34° E 00:38:40 26° SE visible
08 Jul ? 02:09:13 10° NNW 02:12:40 25° WNW 02:15:20 14° WSW visible
09 Jul ? 00:43:04 10° NNE 00:47:08 43° E 00:48:38 31° SSE visible
09 Jul ? 02:19:22 10° NNW 02:22:28 20° WNW 02:25:18 11° WSW visible
